Location: Erp
(42.9417°N, 1.2009°E)
Time: 12:03:27
(UTC+00:00)

Cosmos 1959 Rocket - Pass Details

Date: 22 April 2026
Orbit: 946 x 997 km, 82.9° (Epoch: 12 May)

Event Time Altitude Azimuth Distance (km) Brightness Sun altitude
Rises 19:19:58 0° 180° (S) 3,699 7.3 -6.7°
Reaches altitude 10° 19:22:29 10° 178° (S) 2,751 6.6 -7.1°
Maximum altitude 19:28:47 74° 95° (E) 1,029 4.5 -8.2°
Drops below altitude 10° 19:35:04 10° 11° (NNE) 2,743 7.1 -9.2°
Sets 19:37:34 0° 10° (N) 3,688 7.8 -9.6°
